Location: Newark
(48.6461°N, 4.3644°W)
Time: 04:58:25
(UTC+00:00)

Transit 4A - Pass Details

Date: 31 January 2020
Orbit: 872 x 973 km, 66.8° (Epoch: 16 February)

Event Time Altitude Azimuth Distance (km) Brightness Sun altitude
Rises 14:11:08 0° 323° (NW) 3,473 10.6 20.3°
Reaches altitude 10° 14:13:37 10° 321° (NW) 2,530 10.0 20.1°
Maximum altitude 14:19:25 70° 239° (WSW) 929 8.6 19.6°
Drops below altitude 10° 14:25:14 10° 157° (SSE) 2,539 10.8 19.2°
Sets 14:27:45 0° 155° (SSE) 3,486 11.4 19.0°
